Terminal Aerodrome Forecast
Issued by NWS

Home | Current Version | Previous Version | Text Only | Print | Product List | Glossary On
Versions: 1 2 3 4 5 6 7 8 9 10 11 12 13 14 15 16 17 18 19 20 21 22
993
FTUS46 KMFR 061144
TAFRBG
TAF
KRBG 061144Z 0612/0712 00000KT P6SM -SHRA SCT008 BKN025 OVC035
      TEMPO 0612/0616 4SM BR BKN008
     FM061700 VRB03KT P6SM -SHRA SCT008 OVC020
     FM062000 36004KT P6SM SCT050
     FM070700 00000KT 4SM BR OVC002
     FM071000 00000KT 1/2SM FZFG VV002=

USA.gov is the U.S. government's official web portal to all federal, state and local government web resources and services.